Snowfall_Accumulation
0.0 0.0 0.0 0.0 0.0 0.0 0.0 0.0 0.0 0.0 0.0 0.0 0.0 0.0 0.0 0.0 0.0 0.0 0.0 nan nan nan nan nan nan nan nan nan nan nan nan nan nan nan nan nan nan nan
0.0 0.0 0.0 0.0 0.0 0.0 0.0 0.0 0.0 0.0 0.0 0.0 0.0 0.0 0.0 0.0 0.0 0.0 0.0 nan nan nan nan nan nan nan nan nan nan nan nan nan nan nan nan nan nan nan
0.0 0.0 0.0 0.0 0.0 0.0 0.0 0.0 0.0 0.0 0.0 0.0 0.0 0.0 0.0 0.0 0.0 0.0 0.0 0.0 0.0 nan nan nan nan nan nan nan nan nan nan nan nan nan nan nan nan nan
0.0 0.0 0.0 0.0 0.0 0.0 0.0 0.0 0.0 0.0 0.0 0.0 0.0 0.1 0.0 0.0 0.0 0.0 0.0 0.0 0.0 nan nan nan nan nan nan nan nan nan nan nan nan nan nan nan nan nan
0.0 0.0 0.0 0.0 0.0 0.0 0.0 0.0 0.0 0.0 0.0 0.0 0.1 0.0 0.0 0.0 0.1 0.0 0.0 0.0 0.0 nan nan nan nan nan nan nan nan nan nan nan nan nan nan nan nan nan
0.0 0.0 0.0 0.0 0.0 0.0 0.0 0.0 0.0 0.0 0.0 0.0 0.0 0.1 0.0 0.0 0.0 0.0 0.0 0.0 0.0 0.0 nan nan nan nan nan nan nan nan nan nan nan nan nan nan nan nan
0.0 0.0 0.0 nan nan nan 0.0 0.0 0.0 0.0 0.0 0.2 0.1 0.1 0.0 0.0 0.0 0.0 0.0 0.0 0.0 0.0 0.0 0.0 0.0 0.0 0.0 nan nan nan nan nan nan nan nan nan nan nan
0.0 0.0 0.0 0.0 0.0 nan nan nan nan 0.0 0.0 0.1 0.1 0.0 0.0 0.0 0.0 0.0 0.0 0.2 0.3 0.0 0.0 0.0 0.0 0.0 0.0 0.0 nan nan nan nan nan nan nan nan nan nan
0.0 0.0 0.0 0.0 nan 0.0 nan nan nan nan nan 0.0 0.0 0.0 0.0 0.0 0.0 0.0 0.0 0.2 0.0 0.0 0.0 0.0 0.0 0.0 0.0 0.0 nan nan nan nan nan nan nan nan nan nan
0.0 0.0 0.0 0.0 0.0 0.0 0.0 0.0 0.0 0.0 0.0 0.0 0.0 0.0 0.0 0.0 0.0 0.0 0.0 0.0 0.0 0.0 0.0 0.5 0.0 0.0 0.0 0.0 nan nan nan nan nan nan nan nan nan nan
0.0 0.0 0.0 0.0 nan nan 0.0 0.0 0.0 0.0 nan nan nan nan nan nan nan 0.0 0.6 0.7 0.2 0.0 0.0 0.1 0.0 0.0 0.0 0.0 0.0 nan nan nan nan nan nan nan nan nan
0.0 0.0 nan 0.0 nan nan 0.0 0.0 0.0 0.0 0.0 0.0 0.0 0.0 nan nan nan 0.0 0.3 1.4 0.9 1.2 0.0 0.8 0.0 0.1 1.1 0.0 0.0 0.0 0.0 nan nan nan nan nan nan 0.0
0.0 0.0 0.0 nan nan nan nan 0.0 0.0 0.0 0.0 0.0 0.0 0.0 0.0 0.0 0.0 0.0 0.0 0.6 1.8 1.5 0.0 0.6 1.7 0.7 1.2 1.1 0.0 0.0 0.0 0.0 0.0 0.0 nan nan nan 0.0
0.0 0.0 0.0 nan nan nan nan nan nan nan 0.0 0.1 0.0 0.0 0.3 0.5 0.3 0.3 0.1 0.2 0.3 0.4 0.1 0.2 7.6 1.6 3.6 3.8 1.3 0.0 0.0 0.0 0.1 0.1 0.1 nan nan nan
0.0 0.0 nan nan nan nan nan nan nan 0.0 0.0 0.4 0.2 0.5 0.6 0.4 0.3 0.7 0.3 0.2 0.2 0.1 0.0 0.3 2.5 1.0 2.2 3.2 2.9 1.1 0.6 0.2 0.2 0.3 0.2 0.2 0.2 0.2
nan 0.1 nan 0.0 nan nan 0.0 0.0 0.0 0.0 0.1 0.5 0.5 0.1 0.1 2.0 2.0 1.2 2.6 1.7 3.1 1.7 0.3 0.2 0.4 0.6 4.8 1.7 2.5 3.0 0.7 3.9 0.3 0.3 0.3 0.3 0.1 0.1
nan 0.0 0.0 0.0 0.1 0.0 0.0 0.0 0.0 0.2 0.8 0.6 1.0 1.1 1.0 1.8 2.0 1.5 2.5 3.2 5.5 3.8 3.5 2.2 0.8 0.4 1.1 1.6 6.0 1.0 0.7 0.6 0.5 0.7 0.9 0.9 0.3 0.2
0.3 0.3 0.3 0.2 0.3 0.1 0.1 0.2 0.2 0.6 1.0 1.7 2.4 2.6 3.4 4.7 4.1 4.7 4.5 4.6 6.2 4.1 4.8 4.7 5.0 9.2 5.8 3.8 1.4 2.3 1.2 1.3 0.7 0.5 0.6 2.6 1.3 0.2
0.3 0.4 0.6 0.5 0.5 0.6 0.8 1.1 1.7 1.0 0.6 3.1 4.7 5.8 6.4 7.0 5.9 6.4 5.7 5.3 6.4 5.0 5.9 6.9 13.0 12.9 17.7 12.0 2.3 nan 5.5 3.0 2.0 1.3 0.5 1.0 2.3 1.0
0.1 0.4 0.8 0.7 0.8 1.4 1.5 1.9 1.9 2.1 2.9 3.4 4.8 6.8 8.7 10.4 9.7 9.2 7.4 9.3 8.1 7.3 9.9 11.7 15.8 13.9 18.6 16.4 12.4 5.2 nan 3.6 2.9 2.8 3.2 0.9 0.5 nan
0.0 0.8 0.6 1.1 1.5 1.8 2.2 3.4 3.2 3.9 4.3 7.1 7.1 9.1 8.6 11.0 10.4 8.0 7.9 4.8 nan 9.7 13.3 10.4 7.9 nan 12.2 15.1 18.9 7.6 4.2 nan 0.3 5.0 4.2 4.1 3.3 1.5
0.1 0.8 0.7 1.4 2.1 2.9 3.6 3.8 4.4 3.8 3.4 4.8 5.2 7.3 7.1 8.9 10.8 8.6 6.1 9.5 5.3 5.7 8.4 7.6 7.5 9.5 13.4 13.4 11.8 5.9 4.1 2.4 nan nan nan nan 13.0 18.1
1.2 1.2 1.4 2.1 2.4 3.7 4.6 4.7 4.0 4.3 3.5 5.7 6.3 7.3 7.8 11.8 4.9 5.1 6.2 5.8 6.3 8.0 7.5 9.7 7.4 6.8 8.1 9.3 12.7 9.5 6.4 4.9 3.0 4.4 3.3 nan nan nan
Water_Equivalent
0.00 0.00 0.00 0.00 0.00 0.00 0.00 0.00 0.00 0.00 0.00 0.00 0.00 0.00 0.00 0.00 0.00 0.00 0.00 nan nan nan nan nan nan nan nan nan nan nan nan nan nan nan nan nan nan nan
0.00 0.00 0.00 0.00 0.00 0.00 0.00 0.00 0.00 0.00 0.00 0.00 0.00 0.00 0.00 0.00 0.00 0.00 0.00 nan nan nan nan nan nan nan nan nan nan nan nan nan nan nan nan nan nan nan
0.00 0.00 0.00 0.00 0.00 0.00 0.00 0.00 0.00 0.00 0.00 0.00 0.00 0.00 0.00 0.00 0.00 0.00 0.00 0.00 0.00 nan nan nan nan nan nan nan nan nan nan nan nan nan nan nan nan nan
0.00 0.00 0.00 0.00 0.00 0.00 0.00 0.00 0.00 0.00 0.00 0.00 0.00 0.03 0.00 0.00 0.00 0.00 0.00 0.00 0.00 nan nan nan nan nan nan nan nan nan nan nan nan nan nan nan nan nan
0.00 0.00 0.00 0.00 0.00 0.00 0.00 0.00 0.00 0.00 0.01 0.00 0.03 0.01 0.00 0.00 0.02 0.01 0.00 0.00 0.00 nan nan nan nan nan nan nan nan nan nan nan nan nan nan nan nan nan
0.00 0.00 0.00 0.00 0.00 0.00 0.00 0.00 0.00 0.01 0.00 0.00 0.01 0.03 0.01 0.00 0.00 0.00 0.00 0.00 0.00 0.00 nan nan nan nan nan nan nan nan nan nan nan nan nan nan nan nan
0.00 0.00 0.00 nan nan nan 0.00 0.00 0.00 0.00 0.01 0.06 0.05 0.03 0.00 0.00 0.00 0.00 0.00 0.00 0.00 0.00 0.00 0.00 0.00 0.00 0.00 nan nan nan nan nan nan nan nan nan nan nan
0.00 0.00 0.00 0.00 0.00 nan nan nan nan 0.00 0.00 0.06 0.06 0.00 0.00 0.00 0.00 0.00 0.00 0.07 0.11 0.00 0.00 0.00 0.00 0.00 0.00 0.00 nan nan nan nan nan nan nan nan nan nan
0.00 0.00 0.00 0.00 nan 0.00 nan nan nan nan nan 0.00 0.00 0.00 0.00 0.00 0.00 0.00 0.00 0.06 0.00 0.00 0.00 0.00 0.00 0.00 0.00 0.00 nan nan nan nan nan nan nan nan nan nan
0.00 0.00 0.00 0.00 0.00 0.00 0.00 0.00 0.00 0.00 0.00 0.00 0.00 0.00 0.00 0.00 0.00 0.00 0.00 0.01 0.00 0.00 0.00 0.14 0.00 0.00 0.00 0.00 nan nan nan nan nan nan nan nan nan nan
0.00 0.00 0.00 0.00 nan nan 0.00 0.00 0.00 0.00 nan nan nan nan nan nan nan 0.00 0.15 0.21 0.04 0.00 0.00 0.01 0.00 0.00 0.00 0.00 0.00 nan nan nan nan nan nan nan nan nan
0.00 0.00 nan 0.00 nan nan 0.00 0.00 0.00 0.00 0.00 0.00 0.00 0.00 nan nan nan 0.00 0.10 0.36 0.25 0.29 0.00 0.22 0.01 0.03 0.26 0.00 0.00 0.00 0.00 nan nan nan nan nan nan 0.00
0.00 0.00 0.00 nan nan nan nan 0.00 0.00 0.00 0.00 0.00 0.00 0.00 0.00 0.00 0.00 0.01 0.00 0.19 0.48 0.39 0.00 0.19 0.45 0.21 0.32 0.26 0.00 0.00 0.00 0.00 0.00 0.00 nan nan nan 0.00
0.00 0.00 0.00 nan nan nan nan nan nan nan 0.00 0.02 0.01 0.00 0.08 0.14 0.11 0.11 0.02 0.06 0.09 0.10 0.03 0.04 1.77 0.37 0.79 0.70 0.28 0.00 0.00 0.00 0.04 0.05 0.05 nan nan nan
0.00 0.00 nan nan nan nan nan nan nan 0.00 0.01 0.08 0.04 0.15 0.18 0.13 0.09 0.17 0.07 0.05 0.06 0.03 0.01 0.08 0.61 0.22 0.48 0.62 0.52 0.27 0.18 0.07 0.08 0.12 0.10 0.08 0.07 0.07
nan 0.04 nan 0.00 nan nan 0.00 0.00 0.00 0.00 0.03 0.12 0.10 0.02 0.01 0.47 0.42 0.29 0.54 0.37 0.65 0.42 0.10 0.07 0.11 0.13 0.98 0.37 0.53 0.57 0.20 0.84 0.13 0.11 0.13 0.10 0.05 0.02
nan 0.01 0.00 0.00 0.02 0.00 0.00 0.00 0.01 0.03 0.18 0.14 0.21 0.21 0.18 0.36 0.41 0.34 0.52 0.66 1.02 0.77 0.68 0.56 0.20 0.10 0.27 0.36 1.09 0.25 0.17 0.17 0.18 0.26 0.29 0.28 0.12 0.09
0.08 0.05 0.08 0.06 0.07 0.01 0.03 0.03 0.03 0.16 0.23 0.39 0.51 0.56 0.68 0.90 0.79 0.95 0.92 0.87 1.10 0.78 0.87 0.89 0.94 1.43 1.17 0.92 0.34 0.52 0.35 0.38 0.27 0.20 0.21 0.67 0.37 0.10
0.07 0.11 0.15 0.14 0.13 0.15 0.20 0.26 0.39 0.25 0.14 0.68 1.04 1.26 1.35 1.39 1.16 1.13 1.00 0.98 1.15 0.90 1.04 1.21 1.84 2.09 2.24 1.48 0.48 nan 1.14 0.77 0.59 0.39 0.20 0.32 0.66 0.37
0.02 0.09 0.20 0.18 0.21 0.31 0.35 0.42 0.44 0.47 0.63 0.75 1.06 1.47 1.81 1.94 1.71 1.53 1.24 1.39 1.29 1.17 1.43 1.74 2.22 2.41 3.06 2.42 1.71 0.90 nan 0.87 0.72 0.63 0.81 0.26 0.17 nan
0.01 0.18 0.15 0.24 0.33 0.41 0.50 0.77 0.69 0.86 0.97 1.53 1.48 1.82 1.69 2.07 1.73 1.34 1.31 0.81 nan 1.40 1.64 1.32 1.32 nan 2.51 2.48 2.46 1.06 0.81 nan 0.10 1.19 1.02 0.81 0.68 0.33
0.03 0.17 0.17 0.31 0.46 0.65 0.81 0.83 0.91 0.81 0.73 1.04 1.03 1.45 1.37 1.65 1.81 1.36 0.93 1.41 0.82 0.88 1.23 1.27 1.32 1.67 2.28 2.12 1.60 0.69 0.61 0.50 nan nan nan nan 2.36 2.67
0.27 0.25 0.30 0.47 0.57 0.81 0.98 0.97 0.83 0.93 0.75 1.16 1.32 1.42 1.45 1.82 0.86 0.87 0.96 0.88 0.95 1.16 1.10 1.16 1.06 1.11 1.30 1.45 1.68 1.19 0.78 0.67 0.50 0.73 0.68 nan nan nan
SL_Ratio
nan nan nan nan nan nan nan nan nan nan nan nan nan nan nan nan nan nan nan nan nan nan nan nan nan nan nan nan nan nan nan nan nan nan nan nan nan nan
nan nan nan nan nan nan nan nan nan nan nan nan nan nan nan nan nan nan nan nan nan nan nan nan nan nan nan nan nan nan nan nan nan nan nan nan nan nan
nan nan nan nan nan nan nan nan nan nan nan nan nan nan nan nan nan nan nan nan nan nan nan nan nan nan nan nan nan nan nan nan nan nan nan nan nan nan
nan nan nan nan nan nan nan nan nan nan nan nan 0.0 2.4 3.3 nan nan nan nan nan nan nan nan nan nan nan nan nan nan nan nan nan nan nan nan nan nan nan
nan nan nan nan nan nan nan nan 2.5 2.7 2.4 2.7 2.5 2.5 0.0 nan 2.6 2.7 nan nan nan nan nan nan nan nan nan nan nan nan nan nan nan nan nan nan nan nan
nan nan nan nan nan nan nan nan nan 2.3 nan 2.0 2.6 2.5 2.6 0.0 nan nan nan nan nan nan nan nan nan nan nan nan nan nan nan nan nan nan nan nan nan nan
nan nan nan nan nan nan 2.9 5.0 nan nan 2.4 2.5 2.5 2.4 2.2 nan nan nan nan nan nan nan nan nan nan nan nan nan nan nan nan nan nan nan nan nan nan nan
nan nan nan nan nan nan nan nan nan nan nan 2.5 2.5 nan nan nan nan nan 3.3 2.5 2.9 nan nan nan nan nan nan nan nan nan nan nan nan nan nan nan nan nan
nan nan nan nan nan nan nan nan nan nan nan nan nan nan nan nan nan 2.7 3.3 2.8 nan nan nan nan nan nan nan nan nan nan nan nan nan nan nan nan nan nan
nan nan nan nan nan nan nan nan nan nan nan nan nan nan nan nan nan nan 5.7 5.6 nan nan nan 3.4 nan nan nan nan nan nan nan nan nan nan nan nan nan nan
nan nan nan nan nan nan nan nan nan nan nan nan nan nan nan nan nan 5.0 3.8 3.6 4.4 nan nan 4.0 nan nan nan nan nan nan nan nan nan nan nan nan nan nan
nan nan nan nan nan nan nan nan 4.0 nan nan nan nan nan nan nan nan nan 2.9 3.8 3.6 4.1 3.3 3.6 3.2 3.8 4.0 nan nan nan nan nan nan nan nan nan nan nan
nan nan nan nan nan nan nan nan nan nan nan nan nan nan nan nan nan 2.6 0.0 3.2 3.7 3.8 nan 3.3 3.7 3.5 3.8 4.0 nan nan nan nan nan nan nan nan nan nan
nan nan nan nan nan nan nan nan nan nan nan 4.6 5.2 5.6 3.4 3.3 3.0 3.2 4.2 3.2 2.9 3.5 2.8 4.3 4.3 4.2 4.6 5.4 4.8 0.0 2.5 2.5 2.5 2.5 2.5 nan nan nan
nan nan nan nan nan nan nan nan nan 2.0 5.5 5.1 4.8 3.6 3.4 3.2 3.7 4.1 4.1 3.9 3.8 3.4 3.5 3.6 4.1 4.5 4.5 5.1 5.5 4.2 3.6 2.5 2.5 2.6 2.5 2.5 2.5 2.5
nan 2.4 nan nan nan nan nan nan 3.3 nan 4.2 4.5 4.5 4.6 5.2 4.3 4.7 4.2 4.8 4.6 4.8 3.9 3.3 3.3 3.9 4.5 4.9 4.5 4.6 5.2 3.5 4.6 2.6 2.5 2.5 2.5 2.5 2.6
nan 4.5 nan nan 2.9 nan nan nan 5.0 5.3 4.4 4.3 4.8 5.1 5.3 5.0 5.0 4.5 4.8 4.8 5.5 4.9 5.1 4.0 4.1 4.2 3.9 4.6 5.5 4.2 3.9 3.4 2.7 2.7 3.0 3.1 2.5 2.5
4.2 4.7 3.3 3.3 3.8 5.1 5.2 5.2 5.2 4.1 4.4 4.4 4.7 4.7 5.0 5.2 5.2 5.0 4.9 5.3 5.6 5.3 5.5 5.3 5.3 6.4 5.0 4.2 3.9 4.4 3.5 3.4 2.7 2.6 2.7 3.9 3.5 2.5
4.0 3.5 3.8 3.8 3.8 3.9 4.2 4.2 4.5 4.0 4.4 4.6 4.5 4.6 4.7 5.0 5.0 5.7 5.7 5.4 5.6 5.6 5.6 5.7 7.0 6.2 7.9 8.1 4.8 nan 4.8 3.9 3.4 3.4 2.6 3.1 3.6 2.8
4.6 4.0 4.0 3.9 4.1 4.4 4.4 4.5 4.4 4.4 4.6 4.5 4.6 4.6 4.8 5.4 5.7 6.0 6.0 6.7 6.3 6.2 6.9 6.8 7.1 5.8 6.1 6.8 7.2 5.8 nan 4.1 4.0 4.5 4.0 3.3 2.7 nan
4.2 4.3 4.1 4.4 4.4 4.3 4.4 4.5 4.6 4.6 4.4 4.6 4.8 5.0 5.1 5.3 6.0 6.0 6.0 6.0 nan 6.9 8.1 7.8 6.0 nan 4.8 6.1 7.7 7.1 5.2 nan 3.2 4.2 4.1 5.1 4.9 4.6
5.0 4.6 4.3 4.5 4.5 4.4 4.4 4.5 4.8 4.6 4.7 4.6 5.0 5.0 5.2 5.4 6.0 6.3 6.6 6.8 6.5 6.5 6.8 6.0 5.7 5.7 5.9 6.3 7.4 8.5 6.7 4.8 nan nan nan nan 5.5 6.8
4.5 4.8 4.6 4.5 4.3 4.6 4.7 4.8 4.8 4.7 4.7 4.9 4.8 5.1 5.4 6.5 5.7 5.9 6.4 6.6 6.7 7.0 6.8 8.3 7.0 6.1 6.3 6.4 7.6 8.0 8.2 7.4 6.1 6.1 4.9 nan nan nan